Location: *
(51.4660°N, 0.3360°W)
Time: 21:32:38
(UTC+00:00)

Cosmos 1707 - Pass Details

Date: 19 September 2019
Orbit: 517 x 530 km, 82.5° (Epoch: 16 October)

Event Time Altitude Azimuth Distance (km) Brightness Sun altitude
Rises 19:48:31 0° 343° (NNW) 2,683 7.0 -16.1°
Reaches altitude 10° 19:50:45 10° 336° (NNW) 1,789 6.1 -16.4°
Maximum altitude 19:54:25 39° 267° (W) 809 4.1 -16.9°
Drops below altitude 10° 19:58:04 10° 198° (SSW) 1,777 5.3 -17.4°
Sets 20:00:17 0° 191° (S) 2,661 6.2 -17.8°
Enters shadow 20:00:23 - 190° (S) 2,701 6.2 -17.8°
